Fredericksburg, VA

1:28 PM EST on December 08, 2019 (GMT -0500)
Shannon

Weather History for KEZF - October, 2019

Change the Weather History Date:

Tuesday, October 15, 2019

  Actual Average (KNYG) Record (KNYG)
Temperature  
Mean Temperature 58 °F -  
Max Temperature 73 °F 65 °F 81 °F (2017)
Min Temperature 44 °F 46 °F 34 °F (2006)
Degree Days  
Heating Degree Days 6    
Growing Degree Days 8 (Base 50)    
Moisture  
Dew Point 48 °F    
Average Humidity 72    
Maximum Humidity 100    
Minimum Humidity 37    
Precipitation  
Precipitation 0.00 in - - ()
Sea Level Pressure  
Sea Level Pressure 30.10 in    
Wind  
Wind Speed 2 mph ()    
Max Wind Speed 9 mph    
Max Gust Speed -    
Visibility 10.0 miles    
Events      
Averages and records for this station are not official NWS values.
T = Trace of Precipitation, MM = Missing Value Source: Averaged Metar Reports

Daily Weather History Graph

Daily Weather History Graph

Search for Another Location

Airport or City:

Astronomy

Oct. 15, 2019 Rise Set
Actual Time 7:18 AM EDT 6:32 PM EDT
Civil Twilight 6:51 AM EDT 6:58 PM EDT
Nautical Twilight 6:21 AM EDT 7:29 PM EDT
Astronomical Twilight 5:50 AM EDT 7:59 PM EDT
Moon 7:52 PM EDT (10/15) 8:46 AM EDT (10/15)
Length of Visible Light 12h 07m
Length of Day
11h 13m
Full, 97% of the Moon is Illuminated
Oct 15
Full
Oct 21
Last Quarter
Oct 27
New
Nov 4
First Quarter
Nov 12
Full

Hourly Weather History & Observations

Time (EDT) Temp. Windchill Dew Point Humidity Pressure Visibility Wind Dir Wind Speed Gust Speed Precip Events Conditions
12:15 AM 50.2 °F - 49.8 °F 99% 30.08 in 10.0 mi Calm Calm - N/A   Clear
12:35 AM 49.1 °F - 49.1 °F 100% 30.08 in 10.0 mi WNW 4.6 mph - N/A   Clear
12:55 AM 49.1 °F - 49.1 °F 100% 30.09 in 10.0 mi Calm Calm - N/A   Clear
1:15 AM 49.1 °F - 49.1 °F 100% 30.09 in 10.0 mi Calm Calm - N/A   Clear
1:55 AM 48.6 °F - 48.6 °F 100% 30.10 in 10.0 mi Calm Calm - N/A   Clear
2:15 AM 48.2 °F - 48.2 °F 100% 30.10 in 10.0 mi Calm Calm - N/A   Clear
2:35 AM 48.2 °F - 48.2 °F 100% 30.10 in 10.0 mi Calm Calm - N/A   Clear
2:55 AM 47.8 °F - 47.8 °F 100% 30.11 in 10.0 mi Calm Calm - N/A   Clear
3:15 AM 47.3 °F - 47.3 °F 100% 30.11 in 10.0 mi Calm Calm - N/A   Clear
3:35 AM 47.7 °F - 47.7 °F 100% 30.11 in 10.0 mi Calm Calm - N/A   Clear
4:15 AM 46.4 °F - 46.4 °F 100% 30.12 in 10.0 mi Calm Calm - N/A   Clear
4:35 AM 46.4 °F - 46.4 °F 100% 30.12 in 10.0 mi Calm Calm - N/A   Clear
4:55 AM 46.2 °F - 46.2 °F 100% 30.13 in 10.0 mi Calm Calm - N/A   Clear
5:15 AM 45.5 °F - 45.5 °F 100% 30.13 in 10.0 mi Calm Calm - N/A   Clear
5:35 AM 45.5 °F - 45.5 °F 100% 30.13 in 10.0 mi Calm Calm - N/A   Clear
5:55 AM 45.1 °F 43.7 °F 45.1 °F 100% 30.14 in 10.0 mi NW 3.5 mph - N/A   Clear
6:15 AM 45.3 °F - 45.3 °F 100% 30.14 in 10.0 mi Calm Calm - N/A   Clear
6:55 AM 44.2 °F - 44.2 °F 100% 30.15 in 10.0 mi Calm Calm - N/A   Clear
7:15 AM 44.1 °F - 44.1 °F 100% 30.16 in 10.0 mi Calm Calm - N/A   Clear
7:35 AM 44.2 °F - 44.2 °F 100% 30.16 in 10.0 mi Calm Calm - N/A   Clear
7:55 AM 44.6 °F - 44.6 °F 100% 30.17 in 10.0 mi Calm Calm - N/A   Clear
8:15 AM 46.6 °F - 46.4 °F 99% 30.17 in 10.0 mi Calm Calm - N/A   Clear
8:35 AM 49.3 °F - 47.7 °F 94% 30.17 in 10.0 mi Calm Calm - N/A   Clear
8:55 AM 51.6 °F - 48.9 °F 90% 30.18 in 10.0 mi Calm Calm - N/A   Clear
9:15 AM 55.0 °F - 49.8 °F 83% 30.18 in 10.0 mi Calm Calm - N/A   Clear
9:35 AM 57.7 °F - 49.3 °F 73% 30.18 in 10.0 mi Calm Calm - N/A   Clear
9:55 AM 59.4 °F - 50.4 °F 72% 30.17 in 10.0 mi Calm Calm - N/A   Clear
10:15 AM 61.2 °F - 51.6 °F 71% 30.17 in 10.0 mi Calm Calm - N/A   Clear
10:35 AM 63.3 °F - 52.3 °F 67% 30.17 in 10.0 mi Calm Calm - N/A   Clear
10:55 AM 65.3 °F - 52.9 °F 64% 30.17 in 10.0 mi Calm Calm - N/A   Clear
11:15 AM 66.4 °F - 53.1 °F 62% 30.16 in 10.0 mi SSE 3.5 mph - N/A   Clear
11:35 AM 67.6 °F - 52.2 °F 58% 30.16 in 10.0 mi ESE 4.6 mph - N/A   Clear
11:55 AM 69.3 °F - 49.5 °F 49% 30.15 in 10.0 mi SE 4.6 mph - N/A   Clear
12:15 PM 70.0 °F - 44.8 °F 40% 30.14 in 10.0 mi SE 3.5 mph - N/A   Clear
12:35 PM 70.9 °F - 45.9 °F 41% 30.14 in 10.0 mi ENE 4.6 mph - N/A   Clear
12:55 PM 71.6 °F - 45.3 °F 39% 30.14 in 10.0 mi East 5.8 mph - N/A   Clear
1:15 PM 72.1 °F - 44.4 °F 37% 30.14 in 10.0 mi Calm Calm - N/A   Clear
1:35 PM 72.3 °F - 44.6 °F 37% 30.12 in 10.0 mi Calm Calm - N/A   Clear
1:55 PM 72.5 °F - 45.1 °F 37% 30.11 in 10.0 mi East 8.1 mph - N/A   Clear
2:15 PM 72.5 °F - 44.8 °F 37% 30.10 in 10.0 mi NE 3.5 mph - N/A   Clear
2:35 PM 73.2 °F - 45.3 °F 37% 30.09 in 10.0 mi SE 8.1 mph - N/A   Clear
2:55 PM 73.6 °F - 46.2 °F 38% 30.08 in 10.0 mi East 6.9 mph - N/A   Clear
3:15 PM 73.4 °F - 46.4 °F 38% 30.08 in 10.0 mi ENE 5.8 mph - N/A   Clear
3:35 PM 73.6 °F - 46.2 °F 38% 30.06 in 10.0 mi East 6.9 mph - N/A   Clear
3:55 PM 73.6 °F - 46.0 °F 37% 30.06 in 10.0 mi SE 5.8 mph - N/A   Clear
4:15 PM 73.4 °F - 46.0 °F 38% 30.05 in 10.0 mi ENE 8.1 mph - N/A   Clear
4:35 PM 73.9 °F - 46.2 °F 37% 30.04 in 10.0 mi ESE 8.1 mph - N/A   Clear
4:55 PM 73.4 °F - 45.9 °F 37% 30.04 in 10.0 mi East 9.2 mph - N/A   Clear
5:15 PM 72.7 °F - 46.0 °F 39% 30.04 in 10.0 mi ESE 5.8 mph - N/A   Clear
5:35 PM 71.2 °F - 45.7 °F 40% 30.04 in 10.0 mi ESE 5.8 mph - N/A   Clear
5:55 PM 70.7 °F - 46.2 °F 42% 30.04 in 10.0 mi Calm Calm - N/A   Clear
6:15 PM 65.7 °F - 49.3 °F 55% 30.05 in 10.0 mi ESE 3.5 mph - N/A   Clear
6:35 PM 67.1 °F - 48.7 °F 52% 30.04 in 10.0 mi ESE 5.8 mph - N/A   Clear
6:55 PM 65.8 °F - 49.1 °F 55% 30.04 in 10.0 mi ESE 5.8 mph - N/A   Clear
7:15 PM 64.4 °F - 49.1 °F 58% 30.04 in 10.0 mi ESE 3.5 mph - N/A   Clear
7:35 PM 61.2 °F - 49.8 °F 66% 30.04 in 10.0 mi Calm Calm - N/A   Clear
7:55 PM 59.5 °F - 50.2 °F 71% 30.04 in 10.0 mi SE 3.5 mph - N/A   Clear
8:15 PM 60.4 °F - 49.8 °F 68% 30.03 in 10.0 mi ESE 4.6 mph - N/A   Clear
8:55 PM 59.0 °F - 49.5 °F 71% 30.02 in 10.0 mi Calm Calm - N/A   Clear
9:15 PM 57.2 °F - 50.0 °F 77% 30.02 in 10.0 mi Calm Calm - N/A   Clear
9:35 PM 56.3 °F - 50.0 °F 79% 30.02 in 10.0 mi Calm Calm - N/A   Clear
9:55 PM 55.0 °F - 50.4 °F 84% 30.02 in 10.0 mi Calm Calm - N/A   Clear
10:15 PM 53.8 °F - 50.0 °F 87% 30.02 in 10.0 mi Calm Calm - N/A   Clear
10:35 PM 53.6 °F - 50.2 °F 88% 30.03 in 10.0 mi Calm Calm - N/A   Clear
10:55 PM 53.4 °F - 50.2 °F 89% 30.03 in 10.0 mi Calm Calm - N/A   Clear
11:15 PM 52.2 °F - 49.5 °F 91% 30.02 in 10.0 mi Calm Calm - N/A   Clear
11:35 PM 52.3 °F - 50.0 °F 92% 30.02 in 10.0 mi Calm Calm - N/A   Clear